NY5V Weather Reports


Display with metric or nautical units.
time (UTC)temp
F
wind
direction
speed
MPH
gust
MPH
rain 1hr
in
rain 24hr
in
rain mn
in
humidity
%
barometer
mb
20260508202316 78 45 1.0 1.0 0.00 0.00 0.00 62 1010.2
20260508201316 79 51 0.0 1.0 0.00 0.00 0.00 61 1010.5
20260508200315 79 48 0.0 0.0 0.00 0.00 0.00 59 1010.6
20260508195313 79 54 0.0 0.0 0.00 0.00 0.00 61 1010.7
20260508194313 80 45 0.0 0.0 0.00 0.00 0.00 57 1010.7
20260508193312 79 53 0.0 0.0 0.00 0.00 0.00 59 1011.0
20260508192312 79 65 1.0 1.0 0.00 0.00 0.00 59 1011.0
20260508191306 80 51 0.0 0.0 0.00 0.00 0.00 59 1011.3
20260508190305 79 54 0.0 1.0 0.00 0.00 0.00 59 1011.5
20260508185306 78 56 0.0 0.0 0.00 0.00 0.00 61 1011.4
20260508184305 77 38 0.0 1.0 0.00 0.00 0.00 62 1011.5
20260508183305 78 60 0.0 1.0 0.00 0.00 0.00 61 1011.7
20260508182306 77 45 0.0 1.0 0.00 0.00 0.00 62 1011.8
20260508181302 77 47 0.0 0.0 0.00 0.00 0.00 62 1012.4
20260508180301 76 22 1.0 1.0 0.00 0.00 0.00 65 1012.3
20260508175300 77 35 1.0 1.0 0.00 0.00 0.00 63 1012.2
20260508174255 77 43 0.0 1.0 0.00 0.00 0.00 63 1012.6
20260508173254 76 17 2.0 2.0 0.00 0.00 0.00 62 1013.0
20260508172254 78 52 2.0 3.0 0.00 0.00 0.00 61 1013.1
20260508171252 76 47 0.0 0.0 0.00 0.00 0.00 64 1013.2
20260508170247 74 55 2.0 2.0 0.00 0.00 0.00 66 1013.6
20260508165247 73 43 0.0 1.0 0.00 0.00 0.00 68 1013.8
20260508164245 74 87 1.0 2.0 0.00 0.00 0.00 67 1013.9
20260508163241 73 61 0.0 1.0 0.00 0.00 0.00 67 1014.3
20260508162239 72 82 1.0 1.0 0.00 0.00 0.00 70 1014.2
20260508161240 72 33 0.0 1.0 0.00 0.00 0.00 68 1014.5
20260508160236 71 53 0.0 1.0 0.00 0.00 0.00 72 1014.8
20260508155235 72 61 1.0 1.0 0.00 0.00 0.00 73 1014.7
20260508154235 69 79 2.0 2.0 0.00 0.00 0.00 76 1014.8
20260508153234 69 56 0.0 0.0 0.00 0.00 0.00 76 1014.7
20260508152232 69 322 1.0 3.0 0.00 0.00 0.00 75 1014.8
20260508151231 69 93 3.0 3.0 0.00 0.00 0.00 74 1014.9
20260508150230 69 58 0.0 0.0 0.00 0.00 0.00 76 1015.0
20260508145228 70 114 2.0 2.0 0.00 0.00 0.00 76 1015.2
20260508144223 68 62 0.0 0.0 0.00 0.00 0.00 80 1015.1
20260508143223 67 62 0.0 1.0 0.00 0.00 0.00 82 1015.0
20260508142222 67 327 3.0 4.0 0.00 0.00 0.00 80 1015.1
20260508141222 66 70 0.0 1.0 0.00 0.00 0.00 82 1015.0
20260508140221 65 71 0.0 0.0 0.00 0.00 0.00 83 1015.2
20260508135219 65 61 1.0 1.0 0.00 0.00 0.00 84 1015.2
20260508134218 64 138 3.0 7.0 0.00 0.00 0.00 87 1014.4
20260508133219 64 72 1.0 1.0 0.00 0.00 0.00 87 1014.4
20260508132214 63 72 1.0 1.0 0.00 0.00 0.00 89 1014.1
20260508131212 62 63 1.0 1.0 0.00 0.00 0.00 90 1014.2
20260508130212 62 63 0.0 0.0 0.00 0.00 0.00 90 1014.7
20260508125209 61 67 1.0 1.0 0.00 0.00 0.00 91 1015.2
20260508124210 60 67 0.0 0.0 0.00 0.00 0.00 92 1015.3
20260508123206 59 61 0.0 0.0 0.00 0.00 0.00 94 1014.9
20260508122204 59 70 0.0 0.0 0.00 0.00 0.00 95 1014.5
20260508121200 58 51 0.0 0.0 0.00 0.00 0.00 97 1014.5
20260508120156 58 59 0.0 0.0 0.00 0.00 0.00 98 1014.7
20260508115155 57 58 0.0 0.0 0.00 0.00 0.00 98 1014.5
20260508114155 57 57 0.0 0.0 0.00 0.00 0.00 98 1014.3
20260508113150 57 55 0.0 0.0 0.00 0.00 0.00 98 1014.3
20260508112148 57 55 0.0 0.0 0.00 0.00 0.00 98 1014.8
20260508111148 57 52 0.0 0.0 0.00 0.00 0.00 98 1015.0
20260508110148 57 51 0.0 0.0 0.00 0.00 0.00 98 1015.3
20260508105146 57 53 0.0 0.0 0.00 0.00 0.00 97 1014.8
20260508104146 57 53 0.0 0.0 0.00 0.00 0.00 97 1015.2
20260508103146 58 52 0.0 0.0 0.00 0.00 0.00 97 1015.1
20260508102141 58 58 0.0 0.0 0.00 0.00 0.00 97 1015.1
20260508101141 58 60 0.0 0.0 0.00 0.00 0.00 97 1015.1
20260508100136 58 61 0.0 0.0 0.00 0.00 0.00 96 1015.2
20260508095136 58 56 0.0 0.0 0.00 0.00 0.00 97 1015.1
20260508094135 58 55 0.0 0.0 0.00 0.00 0.00 96 1015.1
20260508093130 58 58 0.0 0.0 0.00 0.00 0.00 96 1015.1
20260508092126 58 58 0.0 0.0 0.00 0.00 0.00 96 1015.0
20260508091125 58 56 0.0 0.0 0.00 0.00 0.00 97 1015.0
20260508090120 58 53 0.0 0.0 0.00 0.00 0.00 98 1014.8
20260508085119 57 53 0.0 0.0 0.00 0.00 0.00 98 1014.7
20260508084119 57 53 0.0 0.0 0.00 0.00 0.00 98 1014.7
20260508083119 57 53 0.0 0.0 0.00 0.00 0.00 98 1014.9
20260508082118 57 53 0.0 0.0 0.00 0.00 0.00 98 1014.9
20260508081117 57 53 0.0 0.0 0.00 0.00 0.00 98 1015.1
20260508080113 57 53 0.0 0.0 0.00 0.00 0.00 98 1015.0
20260508075112 57 53 0.0 0.0 0.00 0.00 0.00 98 1014.8
20260508074112 57 54 0.0 0.0 0.00 0.00 0.00 97 1015.3
20260508073108 57 54 0.0 0.0 0.00 0.00 0.00 97 1015.0
20260508072106 57 53 0.0 0.0 0.00 0.00 0.00 97 1015.2
20260508071102 58 53 0.0 0.0 0.00 0.00 0.00 97 1015.3
20260508070057 58 53 0.0 0.0 0.00 0.00 0.00 97 1015.6
20260508065052 58 53 0.0 0.0 0.00 0.00 0.00 97 1015.3
20260508064047 58 51 0.0 0.0 0.00 0.00 0.00 97 1015.5
20260508063043 58 51 0.0 0.0 0.00 0.00 0.00 97 1015.5
20260508062042 58 51 0.0 0.0 0.00 0.00 0.00 97 1015.5
20260508061042 58 55 0.0 0.0 0.00 0.00 0.00 97 1015.4
20260508060037 58 55 0.0 0.0 0.00 0.00 0.00 96 1015.3
20260508055035 58 55 0.0 0.0 0.00 0.00 0.00 96 1015.2
20260508054035 59 61 0.0 0.0 0.00 0.00 0.00 96 1015.3
20260508053030 59 52 0.0 0.0 0.00 0.00 0.00 95 1015.6
20260508052029 59 51 0.0 0.0 0.00 0.00 0.00 95 1015.5
20260508051027 59 52 0.0 0.0 0.00 0.00 0.00 94 1015.8
20260508050027 60 51 0.0 0.0 0.00 0.00 0.00 94 1015.9
20260508045026 60 53 0.0 0.0 0.00 0.00 0.00 93 1015.9
20260508044025 60 51 0.0 0.0 0.00 0.00 0.00 93 1015.8
20260508043026 60 53 0.0 0.0 0.00 0.00 0.00 93 1016.0
20260508042025 60 54 0.0 0.0 0.00 0.00 0.00 93 1015.8
20260508041024 60 52 0.0 0.0 0.00 0.00 0.00 93 1015.6
20260508040018 60 51 0.0 0.0 0.00 0.00 0.00 92 1015.9
20260508035018 60 47 0.0 0.0 0.00 0.00 0.00 92 1015.6
20260508034018 60 54 0.0 0.0 0.00 0.00 0.00 91 1015.7
20260508033013 60 54 0.0 0.0 0.00 0.00 0.00 91 1015.9
20260508032013 60 49 0.0 0.0 0.00 0.00 0.00 91 1015.4
20260508031011 61 52 0.0 0.0 0.00 0.00 0.00 92 1015.8
20260508030006 61 51 0.0 0.0 0.00 0.00 0.00 91 1015.5
20260508025005 61 48 0.0 1.0 0.00 0.00 0.00 90 1015.6
20260508024003 61 51 0.0 0.0 0.00 0.00 0.00 89 1015.4
20260508023003 61 54 0.0 0.0 0.00 0.00 0.00 89 1015.1
20260508022001 62 54 0.0 0.0 0.00 0.00 0.00 88 1015.0
20260508020959 62 53 0.0 0.0 0.00 0.00 0.00 88 1015.4
20260508015954 62 55 0.0 0.0 0.00 0.00 0.00 87 1015.3
20260508014954 63 49 0.0 0.0 0.00 0.00 0.00 85 1015.6
20260508013952 63 45 0.0 0.0 0.00 0.00 0.00 84 1015.5
20260508012952 64 46 1.0 1.0 0.00 0.00 0.00 85 1015.2
20260508011952 64 81 1.0 2.0 0.00 0.00 0.00 82 1015.3
20260508010947 65 54 0.0 0.0 0.00 0.00 0.00 83 1015.2
20260508005947 64 56 0.0 0.0 0.00 0.00 0.00 81 1015.4
20260508004946 65 48 0.0 0.0 0.00 0.00 0.00 80 1015.4
20260508003945 65 60 0.0 0.0 0.00 0.00 0.00 80 1015.6
20260508002945 65 53 0.0 0.0 0.00 0.00 0.00 81 1015.3
20260508001943 66 40 1.0 1.0 0.00 0.00 0.00 80 1015.1
20260508000942 66 60 0.0 0.0 0.00 0.00 0.00 78 1014.9
20260507235941 66 64 0.0 0.0 0.00 0.00 0.00 78 1015.3
20260507234936 66 61 0.0 0.0 0.00 0.00 0.00 79 1015.3
20260507233935 67 54 0.0 0.0 0.00 0.00 0.00 78 1015.4
20260507232930 67 55 0.0 0.0 0.00 0.00 0.00 76 1015.6
20260507231930 67 58 0.0 0.0 0.00 0.00 0.00 76 1015.3
20260507230928 68 57 0.0 0.0 0.00 0.00 0.00 74 1015.6
20260507225926 68 55 0.0 0.0 0.00 0.00 0.00 73 1015.6
20260507224925 68 54 0.0 0.0 0.00 0.00 0.00 73 1015.4
20260507223924 68 48 0.0 1.0 0.00 0.00 0.00 74 1015.4
20260507222922 69 57 0.0 0.0 0.00 0.00 0.00 73 1015.5
20260507221921 68 59 0.0 0.0 0.00 0.00 0.00 72 1015.2
20260507220920 69 59 0.0 0.0 0.00 0.00 0.00 72 1015.6
20260507215921 68 60 0.0 0.0 0.00 0.00 0.00 71 1015.8
20260507214920 68 48 0.0 0.0 0.00 0.00 0.00 74 1015.8
20260507213919 69 57 0.0 0.0 0.00 0.00 0.00 70 1015.6
20260507212919 70 71 1.0 1.0 0.00 0.00 0.00 68 1015.4
20260507211918 69 60 0.0 0.0 0.00 0.00 0.00 68 1015.8
20260507210917 70 89 1.0 2.0 0.00 0.00 0.00 68 1015.7
20260507205917 69 61 0.0 0.0 0.00 0.00 0.00 69 1015.8
20260507204916 68 57 0.0 0.0 0.00 0.00 0.00 71 1015.8
20260507203910 69 66 0.0 1.0 0.00 0.00 0.00 69 1016.1